Time,TemperatureF,DewpointF,PressureIn,WindDirection,WindDirectionDegrees,WindSpeedMPH,WindSpeedGustMPH,Humidity,HourlyPrecipIn,Conditions,Clouds,dailyrainin,SoftwareType,DateUTC
2013-09-24 00:14:00,57.6,57.0,30.06,SSE,156,2.0,2.0,96,0.00,,,0.00,weatherlink.com 1.10,2013-09-24 04:14:00,
2013-09-24 00:29:00,57.3,56.0,30.06,South,176,0.0,1.0,96,0.00,,,0.00,weatherlink.com 1.10,2013-09-24 04:29:00,
2013-09-24 00:44:00,57.0,56.0,30.06,South,173,0.0,1.0,96,0.00,,,0.00,weatherlink.com 1.10,2013-09-24 04:44:00,
2013-09-24 00:59:00,56.5,55.0,30.06,South,173,0.0,0.0,96,0.00,,,0.00,weatherlink.com 1.10,2013-09-24 04:59:00,
2013-09-24 01:14:00,57.3,57.0,30.06,NW,322,0.0,2.0,97,0.00,,,0.00,weatherlink.com 1.10,2013-09-24 05:14:00,
2013-09-24 01:29:00,56.9,56.0,30.06,WNW,294,0.0,1.0,97,0.00,,,0.00,weatherlink.com 1.10,2013-09-24 05:29:00,
2013-09-24 01:44:00,56.8,56.0,30.07,NNW,330,1.0,1.0,97,0.00,,,0.00,weatherlink.com 1.10,2013-09-24 05:44:00,
2013-09-24 01:59:00,56.7,56.0,30.07,NNW,333,1.0,2.0,97,0.00,,,0.00,weatherlink.com 1.10,2013-09-24 05:59:00,
2013-09-24 02:14:00,56.6,56.0,30.07,NNW,332,0.0,1.0,97,0.00,,,0.00,weatherlink.com 1.10,2013-09-24 06:14:00,
2013-09-24 02:29:00,56.4,56.0,30.07,NNW,331,0.0,0.0,97,0.00,,,0.00,weatherlink.com 1.10,2013-09-24 06:29:00,
2013-09-24 02:44:00,56.2,55.0,30.07,NNW,332,0.0,1.0,97,0.00,,,0.00,weatherlink.com 1.10,2013-09-24 06:44:00,
2013-09-24 02:59:00,56.3,56.0,30.07,West,274,1.0,1.0,97,0.00,,,0.00,weatherlink.com 1.10,2013-09-24 06:59:00,
2013-09-24 03:14:00,56.5,56.0,30.07,SW,234,0.0,1.0,97,0.00,,,0.00,weatherlink.com 1.10,2013-09-24 07:14:00,
2013-09-24 03:29:00,56.2,55.0,30.06,SW,234,0.0,0.0,97,0.00,,,0.00,weatherlink.com 1.10,2013-09-24 07:29:00,
2013-09-24 03:44:00,55.5,55.0,30.06,SW,218,0.0,1.0,97,0.00,,,0.00,weatherlink.com 1.10,2013-09-24 07:44:00,
2013-09-24 03:59:00,55.5,55.0,30.06,SW,220,0.0,2.0,97,0.00,,,0.00,weatherlink.com 1.10,2013-09-24 07:59:00,
2013-09-24 04:14:00,55.2,55.0,30.06,SW,220,0.0,0.0,98,0.00,,,0.00,weatherlink.com 1.10,2013-09-24 08:14:00,
2013-09-24 04:29:00,55.4,55.0,30.05,West,266,0.0,1.0,98,0.00,,,0.00,weatherlink.com 1.10,2013-09-24 08:29:00,
2013-09-24 04:44:00,55.1,54.0,30.05,SSW,195,0.0,1.0,97,0.00,,,0.00,weatherlink.com 1.10,2013-09-24 08:44:00,
2013-09-24 04:59:00,55.0,55.0,30.05,SSE,148,0.0,1.0,98,0.00,,,0.00,weatherlink.com 1.10,2013-09-24 08:59:00,
2013-09-24 05:14:00,55.0,55.0,30.06,SSE,148,0.0,1.0,98,0.00,,,0.00,weatherlink.com 1.10,2013-09-24 09:14:00,
2013-09-24 05:29:00,54.8,54.0,30.06,SSW,210,0.0,3.0,98,0.00,,,0.00,weatherlink.com 1.10,2013-09-24 09:29:00,
2013-09-24 05:44:00,54.7,54.0,30.06,SW,214,0.0,2.0,98,0.01,,,0.01,weatherlink.com 1.10,2013-09-24 09:44:00,
2013-09-24 05:59:00,54.6,54.0,30.07,South,186,0.0,3.0,98,0.01,,,0.01,weatherlink.com 1.10,2013-09-24 09:59:00,
2013-09-24 06:14:00,54.3,54.0,30.07,SE,131,1.0,3.0,98,0.01,,,0.01,weatherlink.com 1.10,2013-09-24 10:14:00,
2013-09-24 06:29:00,53.9,53.0,30.07,SW,231,1.0,2.0,98,0.01,,,0.01,weatherlink.com 1.10,2013-09-24 10:29:00,
2013-09-24 06:44:00,53.6,53.0,30.08,SSW,204,1.0,2.0,98,0.00,,,0.01,weatherlink.com 1.10,2013-09-24 10:44:00,
2013-09-24 06:59:00,53.9,53.0,30.08,SSE,167,0.0,1.0,98,0.00,,,0.01,weatherlink.com 1.10,2013-09-24 10:59:00,
2013-09-24 07:14:00,54.0,54.0,30.09,SE,141,1.0,2.0,98,0.00,,,0.01,weatherlink.com 1.10,2013-09-24 11:14:00,
2013-09-24 07:29:00,54.4,54.0,30.09,SSE,155,2.0,3.0,98,0.00,,,0.01,weatherlink.com 1.10,2013-09-24 11:29:00,
2013-09-24 07:44:00,54.8,54.0,30.09,ESE,111,1.0,2.0,98,0.00,,,0.01,weatherlink.com 1.10,2013-09-24 11:44:00,
2013-09-24 07:59:00,55.1,55.0,30.09,ESE,118,1.0,4.0,98,0.00,,,0.01,weatherlink.com 1.10,2013-09-24 11:59:00,
2013-09-24 08:15:00,55.4,55.0,30.09,SSW,205,2.0,3.0,98,0.00,,,0.01,weatherlink.com 1.10,2013-09-24 12:15:00,
2013-09-24 08:30:00,55.6,55.0,30.09,ESE,122,0.0,1.0,98,0.00,,,0.01,weatherlink.com 1.10,2013-09-24 12:30:00,
2013-09-24 08:45:00,55.4,55.0,30.09,SSW,197,3.0,4.0,98,0.00,,,0.01,weatherlink.com 1.10,2013-09-24 12:45:00,
2013-09-24 09:00:00,55.5,55.0,30.09,SW,228,0.0,1.0,98,0.00,,,0.01,weatherlink.com 1.10,2013-09-24 13:00:00,
2013-09-24 09:15:00,55.7,55.0,30.09,West,281,1.0,2.0,98,0.00,,,0.01,weatherlink.com 1.10,2013-09-24 13:15:00,
2013-09-24 09:30:00,55.7,55.0,30.09,SW,235,1.0,3.0,98,0.00,,,0.01,weatherlink.com 1.10,2013-09-24 13:30:00,
2013-09-24 09:45:00,55.9,55.0,30.09,NNW,330,1.0,3.0,98,0.00,,,0.01,weatherlink.com 1.10,2013-09-24 13:45:00,
2013-09-24 10:00:00,56.5,56.0,30.08,NW,315,0.0,2.0,97,0.00,,,0.01,weatherlink.com 1.10,2013-09-24 14:00:00,
2013-09-24 10:15:00,58.5,58.0,30.08,NW,319,0.0,2.0,97,0.00,,,0.01,weatherlink.com 1.10,2013-09-24 14:15:00,
2013-09-24 10:30:00,59.8,58.0,30.07,NE,42,0.0,3.0,93,0.00,,,0.01,weatherlink.com 1.10,2013-09-24 14:30:00,
2013-09-24 10:45:00,61.6,58.0,30.07,WNW,293,2.0,2.0,89,0.00,,,0.01,weatherlink.com 1.10,2013-09-24 14:45:00,
2013-09-24 11:00:00,63.4,59.0,30.08,South,177,2.0,4.0,85,0.00,,,0.01,weatherlink.com 1.10,2013-09-24 15:00:00,
2013-09-24 11:15:00,66.8,60.0,30.07,South,174,0.0,2.0,80,0.00,,,0.01,weatherlink.com 1.10,2013-09-24 15:15:00,
2013-09-24 11:30:00,67.7,60.0,30.05,WSW,245,1.0,3.0,77,0.00,,,0.01,weatherlink.com 1.10,2013-09-24 15:30:00,
2013-09-24 11:45:00,69.1,59.0,30.05,SW,226,3.0,5.0,69,0.00,,,0.01,weatherlink.com 1.10,2013-09-24 15:45:00,
2013-09-24 12:00:00,70.7,59.0,30.04,NW,314,1.0,4.0,67,0.00,,,0.01,weatherlink.com 1.10,2013-09-24 16:00:00,
2013-09-24 12:15:00,71.3,60.0,30.04,SW,235,3.0,4.0,67,0.00,,,0.01,weatherlink.com 1.10,2013-09-24 16:15:00,
2013-09-24 12:30:00,72.4,60.0,30.03,WSW,252,1.0,2.0,66,0.00,,,0.01,weatherlink.com 1.10,2013-09-24 16:30:00,
2013-09-24 12:45:00,73.5,59.0,30.03,ENE,78,4.0,5.0,61,0.00,,,0.01,weatherlink.com 1.10,2013-09-24 16:45:00,
2013-09-24 13:00:00,73.6,60.0,30.02,North,352,5.0,5.0,63,0.00,,,0.01,weatherlink.com 1.10,2013-09-24 17:00:00,
2013-09-24 13:15:00,73.0,59.0,30.00,WNW,298,1.0,4.0,62,0.00,,,0.01,weatherlink.com 1.10,2013-09-24 17:15:00,
2013-09-24 13:30:00,73.9,60.0,30.00,NNW,345,8.0,8.0,62,0.00,,,0.01,weatherlink.com 1.10,2013-09-24 17:30:00,
2013-09-24 13:45:00,72.7,59.0,30.00,NNW,338,2.0,7.0,62,0.00,,,0.01,weatherlink.com 1.10,2013-09-24 17:45:00,
2013-09-24 14:00:00,75.1,60.0,30.00,NE,37,2.0,2.0,60,0.00,,,0.01,weatherlink.com 1.10,2013-09-24 18:00:00,
2013-09-24 14:15:00,76.1,60.0,29.98,WNW,297,1.0,3.0,58,0.00,,,0.01,weatherlink.com 1.10,2013-09-24 18:15:00,
2013-09-24 14:30:00,76.6,60.0,29.97,SW,218,1.0,4.0,56,0.00,,,0.01,weatherlink.com 1.10,2013-09-24 18:30:00,
2013-09-24 14:45:00,78.7,61.0,29.96,SSW,212,0.0,4.0,55,0.00,,,0.01,weatherlink.com 1.10,2013-09-24 18:45:00,
2013-09-24 15:00:00,78.8,61.0,29.96,SW,224,1.0,3.0,55,0.00,,,0.01,weatherlink.com 1.10,2013-09-24 19:00:00,
2013-09-24 15:16:00,79.5,60.0,29.95,SSW,207,0.0,5.0,52,0.00,,,0.01,weatherlink.com 1.10,2013-09-24 19:16:00,
2013-09-24 15:31:00,78.2,59.0,29.95,WNW,297,0.0,3.0,52,0.00,,,0.01,weatherlink.com 1.10,2013-09-24 19:31:00,
2013-09-24 15:46:00,77.7,61.0,29.94,South,170,3.0,6.0,56,0.00,,,0.01,weatherlink.com 1.10,2013-09-24 19:46:00,
2013-09-24 16:01:00,77.8,61.0,29.93,SE,139,3.0,9.0,57,0.00,,,0.01,weatherlink.com 1.10,2013-09-24 20:01:00,
2013-09-24 16:16:00,77.0,60.0,29.92,East,93,5.0,13.0,57,0.00,,,0.01,weatherlink.com 1.10,2013-09-24 20:16:00,
2013-09-24 16:31:00,75.8,61.0,29.93,SW,226,6.0,13.0,61,0.00,,,0.01,weatherlink.com 1.10,2013-09-24 20:31:00,
2013-09-24 16:46:00,75.0,61.0,29.92,South,174,8.0,12.0,62,0.00,,,0.01,weatherlink.com 1.10,2013-09-24 20:46:00,
2013-09-24 17:01:00,75.6,63.0,29.92,SW,226,10.0,13.0,64,0.00,,,0.01,weatherlink.com 1.10,2013-09-24 21:01:00,
2013-09-24 17:16:00,74.7,63.0,29.92,SSW,212,8.0,13.0,66,0.00,,,0.01,weatherlink.com 1.10,2013-09-24 21:16:00,
2013-09-24 17:31:00,73.3,63.0,29.92,SW,228,8.0,10.0,69,0.00,,,0.01,weatherlink.com 1.10,2013-09-24 21:31:00,
2013-09-24 17:46:00,73.3,63.0,29.92,SSW,204,5.0,15.0,71,0.00,,,0.01,weatherlink.com 1.10,2013-09-24 21:46:00,
2013-09-24 18:01:00,72.9,63.0,29.93,South,173,5.0,17.0,71,0.00,,,0.01,weatherlink.com 1.10,2013-09-24 22:01:00,
2013-09-24 18:16:00,71.8,63.0,29.92,South,179,10.0,16.0,73,0.00,,,0.01,weatherlink.com 1.10,2013-09-24 22:16:00,
2013-09-24 18:31:00,71.4,63.0,29.92,SSE,156,7.0,12.0,75,0.00,,,0.01,weatherlink.com 1.10,2013-09-24 22:31:00,
2013-09-24 18:46:00,69.9,62.0,29.92,SSW,197,8.0,14.0,77,0.00,,,0.01,weatherlink.com 1.10,2013-09-24 22:46:00,
2013-09-24 19:01:00,68.6,62.0,29.92,SE,132,10.0,12.0,79,0.00,,,0.01,weatherlink.com 1.10,2013-09-24 23:01:00,
2013-09-24 19:16:00,67.7,62.0,29.93,SSE,166,8.0,11.0,82,0.00,,,0.01,weatherlink.com 1.10,2013-09-24 23:16:00,
2013-09-24 19:31:00,67.0,62.0,29.93,South,169,9.0,11.0,83,0.00,,,0.01,weatherlink.com 1.10,2013-09-24 23:31:00,
2013-09-24 19:46:00,66.5,62.0,29.94,South,174,7.0,10.0,84,0.00,,,0.01,weatherlink.com 1.10,2013-09-24 23:46:00,
2013-09-24 20:01:00,66.0,62.0,29.93,SSE,153,5.0,10.0,86,0.00,,,0.01,weatherlink.com 1.10,2013-09-25 00:01:00,
2013-09-24 20:16:00,65.6,61.0,29.93,SSE,164,9.0,9.0,86,0.00,,,0.01,weatherlink.com 1.10,2013-09-25 00:16:00,
2013-09-24 20:31:00,65.3,61.0,29.94,South,179,4.0,14.0,87,0.00,,,0.01,weatherlink.com 1.10,2013-09-25 00:31:00,
2013-09-24 20:46:00,65.2,61.0,29.94,SSW,194,5.0,12.0,87,0.00,,,0.01,weatherlink.com 1.10,2013-09-25 00:46:00,
2013-09-24 21:01:00,65.0,61.0,29.94,South,169,4.0,9.0,87,0.00,,,0.01,weatherlink.com 1.10,2013-09-25 01:01:00,
2013-09-24 21:16:00,64.7,61.0,29.94,SSE,156,3.0,8.0,88,0.00,,,0.01,weatherlink.com 1.10,2013-09-25 01:16:00,
2013-09-24 21:31:00,64.5,61.0,29.94,SE,142,5.0,8.0,88,0.00,,,0.01,weatherlink.com 1.10,2013-09-25 01:31:00,
2013-09-24 21:46:00,64.6,61.0,29.95,SSE,158,2.0,8.0,88,0.00,,,0.01,weatherlink.com 1.10,2013-09-25 01:46:00,
2013-09-24 22:01:00,64.3,61.0,29.94,SSE,163,4.0,8.0,88,0.00,,,0.01,weatherlink.com 1.10,2013-09-25 02:01:00,
2013-09-24 22:16:00,64.0,60.0,29.95,South,174,7.0,9.0,88,0.00,,,0.01,weatherlink.com 1.10,2013-09-25 02:16:00,
2013-09-24 22:31:00,63.8,60.0,29.94,SSE,162,3.0,8.0,88,0.00,,,0.01,weatherlink.com 1.10,2013-09-25 02:31:00,
2013-09-24 22:46:00,63.8,60.0,29.94,SSE,153,4.0,7.0,88,0.00,,,0.01,weatherlink.com 1.10,2013-09-25 02:46:00,
2013-09-24 23:01:00,63.8,61.0,29.95,SSW,195,2.0,5.0,89,0.00,,,0.01,weatherlink.com 1.10,2013-09-25 03:01:00,
2013-09-24 23:16:00,63.7,61.0,29.94,South,181,4.0,5.0,89,0.00,,,0.01,weatherlink.com 1.10,2013-09-25 03:16:00,
2013-09-24 23:31:00,63.7,61.0,29.94,SSE,150,3.0,5.0,89,0.00,,,0.01,weatherlink.com 1.10,2013-09-25 03:31:00,
2013-09-24 23:46:00,63.9,61.0,29.94,SSE,163,3.0,8.0,89,0.00,,,0.01,weatherlink.com 1.10,2013-09-25 03:46:00,